www.pogodaiklimat.ru

Погода и климат >> Архив погоды >> Норвегия >> Маяк Fruholmen


ПОГОДА на Маяке Fruholmen

  • Прогноз погоды на Маяке Fruholmen
  • Монитор погоды на Маяке Fruholmen

АРХИВ ПОГОДЫ на Маяке Fruholmen

Время (UTC), дата Ветер
(напр.,м/с)
 
Видим.   Явления Облачность Т
(С)
Тd
(С)
f
(%)
Тe
(С)
Тes
(С)
Комфортность P
(гПа)
Po
(гПа)
Тmin
(С)
Tmax
(С)
R
(мм)
R24
(мм)
S
(см)
10 17.01 В 4-5
{7}
н/о н/о -1.8 -6 -6 991.6 989.8
11 17.01 ЮВ 4-5
{6}
н/о н/о -2.0 -6 -6 991.4 989.6
12 17.01 В 4-6
{8}
н/о н/о -1.9 -6 -6 991.2 989.4
14 17.01 В 3-5
{6}
н/о н/о -2.4 -6 -6 990.9 989.1
13 17.01 В 5-6
{7}
н/о н/о -2.3 -7 -7 991.0 989.2
15 17.01 В 4-6
{6}
н/о н/о -2.1 -6 -6 990.9 989.1
16 17.01 ЮВ 4-5
{6}
н/о н/о -2.0 -6 -6 991.0 989.2
17 17.01 В 5-6
{7}
н/о н/о -1.8 -7 -7 990.9 989.1
18 17.01 В 3-4
{7}
н/о н/о -1.7 -5 -5 990.9 989.1 -2.7 -1.6
20 17.01 ЮВ 4-5
{5}
н/о н/о -1.8 -6 -6 991.1 989.3
19 17.01 В 4-5
{5}
н/о н/о -1.5 -6 -6 991.0 989.2
21 17.01 ЮВ 3-4
{4}
н/о н/о -1.9 -5 -5 991.4 989.6
22 17.01 ЮВ 4-5
{5}
н/о н/о -1.9 -6 -6 991.4 989.6
23 17.01 ЮВ 4-5
{5}
н/о н/о -1.9 -6 -6 991.4 989.6
00 18.01 ЮВ 4-5
{5}
н/о н/о -2.0 -6 -6 991.4 989.6
02 18.01 ЮВ 4-5
{8}
н/о н/о -2.7 -7 -7 991.5 989.7
01 18.01 ЮВ 5-6
{7}
н/о н/о -2.4 -7 -7 991.4 989.6
03 18.01 Ю 4-6
{6}
н/о н/о -3.0 -7 -7 991.6 989.8
04 18.01 ЮВ 5-6
{6}
н/о н/о -3.1 -8 -8 991.7 989.9
05 18.01 ЮВ 4-5
{7}
н/о н/о -2.9 -7 -7 991.7 989.9
06 18.01 ЮВ 5-6
{8}
н/о н/о -2.8 -8 -8 991.6 989.8 -3.2 -1.4
08 18.01 Ю 7-9
{9}
н/о н/о -2.7 -9 -9 991.9 990.1
07 18.01 ЮВ 5-6
{7}
н/о н/о -3.2 -8 -8 991.9 990.1
09 18.01 Ю 6-8
{10}
н/о н/о -2.5 -8 -8 992.1 990.3
10 18.01 Ю 6-9
{9}
н/о н/о -2.9 -9 -9 992.4 990.6
11 18.01 Ю 5-7
{10}
н/о н/о -2.6 -8 -8 992.4 990.6
12 18.01 Ю 7-10
{10}
н/о н/о -2.8 -9 -9 992.3 990.5
14 18.01 Ю 10-14
{15}
н/о н/о -2.7 -10 -10 991.7 989.9
13 18.01 Ю 6-10
{11}
н/о н/о -2.7 -8 -8 992.2 990.4
15 18.01 Ю 10-13
{14}
н/о н/о -2.6 -10 -10 991.8 990.0
16 18.01 С 14-17
{17}
н/о н/о -1.8 -10 -10 992.3 990.5
17 18.01 С 11-14
{17}
н/о н/о -2.0 -10 -10 993.0 991.2
18 18.01 С 12-14
{17}
н/о н/о -1.6 -9 -9 993.1 991.3 -3.3 -1.4
20 18.01 С 7-10
{12}
н/о н/о -0.5 -6 -6 994.1 992.3
19 18.01 С 10-12
{15}
н/о н/о -0.8 -8 -8 993.4 991.6
21 18.01 -9
{10}
н/о н/о -0.5 994.6 992.8
22 18.01 -7
{9}
н/о н/о -0.7 995.0 993.2
23 18.01 С 5-6
{8}
н/о н/о -0.6 -5 -5 995.1 993.3
00 19.01 СВ 3-4
{15}
н/о н/о -0.9 -4 -4 995.2 993.4
02 19.01 Ю 6-7
{8}
н/о н/о -1.2 -6 -6 995.1 993.3
01 19.01 В 3-5
{5}
н/о н/о -1.0 -4 -4 995.4 993.6
03 19.01 С 1-2
{7}
н/о н/о -2.4 -3 -3 995.4 993.6
04 19.01 ЮВ 4 н/о н/о -2.8 995.5 993.7
05 19.01 Ю 10-13
{13}
н/о н/о -1.9 -9 -9 994.7 992.9
06 19.01 Ю 7-10
{13}
н/о н/о -1.5 -7 -7 995.4 993.6 -3.3 -0.4
08 19.01 СЗ 11-15
{15}
н/о н/о -0.8 -8 -8 996.4 994.6
07 19.01 З 9-11
{14}
н/о н/о -0.7 -7 -7 995.7 993.9
09 19.01 С 10-13
{15}
н/о н/о -1.4 -8 -8 997.1 995.3
10 19.01 С 12-14
{15}
н/о н/о -1.2 -9 -9 997.9 996.1
11 19.01 -13
{14}
н/о н/о -1.3 998.7 996.9
12 19.01 С 12-16
{16}
н/о н/о -1.7 -9 -9 999.5 997.7
14 19.01 С 9-13
{13}
н/о н/о -2.1 -9 -9 1001.1 999.3
13 19.01 С 10-13
{15}
н/о н/о -1.6 -9 -9 1000.4 998.6
15 19.01 С 9-11
{14}
н/о н/о -1.9 -9 -9 1001.9 1000.1
16 19.01 С 10-12
{14}
н/о н/о -2.1 -9 -9 1002.8 1001.0
17 19.01 С 8-12
{13}
н/о н/о -1.9 -8 -8 1003.1 1001.3
18 19.01 С 6-9
{15}
н/о н/о -1.7 -7 -7 1003.6 1001.8 -2.3 -0.6
20 19.01 С 5-8
{9}
н/о н/о -1.9 -7 -7 1004.4 1002.6
19 19.01 С 6-8
{11}
н/о н/о -1.9 -7 -7 1003.9 1002.1
21 19.01 ЮЗ 3-5
{11}
н/о н/о -3.1 -7 -7 1004.7 1002.9
22 19.01 С 4-8
{8}
н/о н/о -1.8 -6 -6 1005.0 1003.2
23 19.01 СЗ 3-5
{8}
н/о н/о -2.0 -5 -5 1005.2 1003.4
00 20.01 ЮЗ 5-6
{12}
н/о н/о -3.5 -9 -9 1005.5 1003.7
02 20.01 Ю 9-13
{13}
н/о н/о -1.3 -8 -8 1004.1 1002.3
01 20.01 ЮЗ 7-8
{8}
н/о н/о -2.4 -8 -8 1004.9 1003.1
03 20.01 ЮЗ 12-17
{17}
н/о н/о -0.9 -8 -8 1003.6 1001.8
04 20.01 ЮЗ 12 н/о н/о -0.9 1002.9 1001.1
05 20.01 ЮЗ 15-26
{26}
н/о н/о -1.8 -10 -10 1003.3 1001.5
06 20.01 ЮЗ 15-20
{26}
н/о н/о -0.5 -9 -9 1002.9 1001.1 -3.6 -0.3
08 20.01 З 13-24
{24}
н/о н/о -2.3 -11 -11 1003.2 1001.4
07 20.01 ЮЗ 14-19
{24}
н/о н/о -1.1 -9 -9 1002.8 1001.0
09 20.01 С 9-12
{20}
н/о н/о -3.4 -11 -11 1005.9 1004.1
10 20.01 С 7-10
{11}
н/о н/о -2.8 -9 -9 1006.3 1004.5
11 20.01 С 9-12
{12}
н/о н/о -2.5 -9 -9 1006.8 1005.0
12 20.01 СЗ 10-13
{24}
н/о н/о -2.6 -10 -10 1007.1 1005.3
14 20.01 С 9-12
{13}
н/о н/о -2.7 -10 -10 1008.1 1006.3
13 20.01 С 9-12
{13}
н/о н/о -2.8 -10 -10 1007.6 1005.8
15 20.01 С 8-12
{13}
н/о н/о -2.9 -10 -10 1008.3 1006.5
16 20.01 С 7-9
{12}
н/о н/о -2.8 -9 -9 1008.5 1006.7
17 20.01 С 7-10
{11}
н/о н/о -2.9 -9 -9 1008.4 1006.6
18 20.01 С 8-10
{13}
н/о н/о -3.2 -10 -10 1008.5 1006.7 -3.7 -0.2
20 20.01 СЗ 9-12
{12}
н/о н/о -2.9 -10 -10 1008.7 1006.9
19 20.01 СЗ 9-12
{12}
н/о н/о -3.1 -10 -10 1008.5 1006.7
21 20.01 СЗ 9-15
{15}
н/о н/о -3.1 -10 -10 1008.8 1007.0
22 20.01 СЗ 8-12
{14}
н/о н/о -3.2 -10 -10 1008.7 1006.9
23 20.01 СЗ 9-12
{12}
н/о н/о -3.0 -10 -10 1008.6 1006.8
00 21.01 СЗ 10-13
{15}
н/о н/о -3.1 -11 -11 1008.3 1006.5
02 21.01 СЗ 9-12
{13}
н/о н/о -3.5 -11 -11 1008.2 1006.4
01 21.01 СЗ 8-11
{13}
н/о н/о -3.3 -10 -10 1008.3 1006.5
03 21.01 СЗ 11-13
{13}
н/о н/о -4.0 -12 -12 1008.3 1006.5
04 21.01 СЗ 11 н/о н/о -4.0 1008.3 1006.5
05 21.01 СЗ 10-13
{14}
н/о н/о -3.5 -11 -11 1008.1 1006.3
06 21.01 СЗ 10-12
{15}
н/о н/о -3.5 -11 -11 1008.3 1006.5 -4.9 -2.7
08 21.01 СЗ 10-13
{14}
н/о н/о -3.2 -11 -11 1008.5 1006.7
07 21.01 СЗ 9-11
{16}
н/о н/о -3.8 -11 -11 1008.4 1006.6
09 21.01 СЗ 11-15
{15}
н/о н/о -4.3 -13 -13 1008.9 1007.1
10 21.01 СЗ 9-12
{16}
н/о н/о -3.7 -11 -11 1008.9 1007.1
11 21.01 СЗ 9-13
{15}
н/о н/о -2.7 -10 -10 1008.6 1006.8
12 21.01 З 13-17
{17}
н/о н/о -3.3 -12 -12 1007.0 1005.2
14 21.01 СЗ 13-16
{19}
н/о н/о -1.1 -9 -9 1007.0 1005.2
13 21.01 З 15-19
{19}
н/о н/о -1.1 -9 -9 1006.2 1004.4
15 21.01 С 11-13
{17}
н/о н/о -1.8 -9 -9 1007.2 1005.4
16 21.01 СЗ 8-10
{13}
н/о н/о -1.1 -7 -7 1007.5 1005.7
17 21.01 С 10-13
{13}
н/о н/о -1.1 -8 -8 1007.5 1005.7
18 21.01 С 11-15
{19}
н/о н/о -1.5 -9 -9 1007.0 1005.2 -4.6 -0.8
20 21.01 С 8-10
{11}
н/о н/о -1.2 -7 -7 1006.9 1005.1
19 21.01 СВ 10-12
{15}
н/о н/о -1.3 -8 -8 1006.8 1005.0
21 21.01 С 4-8
{10}
н/о н/о -2.0 -6 -6 1007.1 1005.3
22 21.01 СВ 4-6
{9}
н/о н/о -3.2 -8 -8 1006.7 1004.9
23 21.01 СВ 6-7
{8}
н/о н/о -3.2 -9 -9 1005.9 1004.1
00 22.01 СВ 9-11
{15}
н/о н/о -2.6 -10 -10 1005.1 1003.3
02 22.01 СВ 11-15
{17}
н/о н/о -2.6 -10 -10 1004.9 1003.1
01 22.01 СВ 10-13
{14}
н/о н/о -2.3 -10 -10 1004.9 1003.1
03 22.01 СВ 13-17
{17}
н/о н/о -2.8 -11 -11 1004.9 1003.1
04 22.01 С 11-14
{18}
н/о н/о -2.3 -10 -10 1005.3 1003.5
05 22.01 СВ 12-15
{15}
н/о н/о -3.2 -11 -11 1005.3 1003.5
06 22.01 С 10-15
{18}
н/о н/о -2.5 -10 -10 1005.8 1004.0 -3.7 -1.0
08 22.01 СВ 10-14
{15}
н/о н/о -2.8 -10 -10 1006.2 1004.4
07 22.01 С 13-16
{16}
н/о н/о -2.8 -11 -11 1005.8 1004.0
09 22.01 СВ 7-9
{14}
н/о н/о -3.1 -9 -9 1006.8 1005.0
10 22.01 С 9-13
{14}
н/о н/о -2.7 -10 -10 1006.8 1005.0
11 22.01 С 10-14
{17}
н/о н/о -4.4 -12 -12 1007.4 1005.6
12 22.01 С 11-13
{17}
н/о н/о -3.7 -12 -12 1007.2 1005.4
14 22.01 С 6-8
{14}
н/о н/о -4.6 -11 -11 1007.7 1005.9
13 22.01 С 8-13
{16}
н/о н/о -4.2 -11 -11 1007.3 1005.5
15 22.01 В 5-6
{11}
н/о н/о -4.0 -9 -9 1007.6 1005.8
16 22.01 С 7-9
{10}
н/о н/о -2.7 -9 -9 1007.5 1005.7
17 22.01 СЗ 2-4
{11}
н/о н/о -3.4 -6 -6 1007.6 1005.8
18 22.01 С 8-10
{16}
н/о н/о -2.3 -9 -9 1007.5 1005.7 -5.1 -2.3
20 22.01 С 3-5
{10}
н/о н/о -3.5 -7 -7 1007.7 1005.9
19 22.01 В 3-6
{13}
н/о н/о -4.4 -8 -8 1007.6 1005.8
21 22.01 ЮЗ 1-1
{5}
н/о н/о -4.0 -5 -5 1007.8 1006.0
22 22.01 Ю 1-1
{3}
н/о н/о -3.6 -4 -4 1008.1 1006.3
23 22.01 В 4-6
{12}
н/о н/о -3.9 -9 -9 1008.7 1006.9
00 23.01 ЮВ 2-3
{13}
н/о н/о -4.3 -7 -7 1009.1 1007.3
02 23.01 ЮВ 2-4
{4}
н/о н/о -3.9 -7 -7 1010.0 1008.2
01 23.01 Ю 3-3
{4}
н/о н/о -4.0 -8 -8 1009.5 1007.7
03 23.01 ЮВ 3-4
{4}
н/о н/о -3.8 -8 -8 1010.7 1008.9
04 23.01 В 6 н/о н/о -2.1 -2.2 99 -10 -10 1011.0 1009.2
05 23.01 В 9-11
{11}
н/о н/о -2.7 -3.1 97 -12 -12 1011.4 1009.6
06 23.01 В 3-4
{11}
н/о н/о -2.6 -3.2 96 -8 -8 1012.3 1010.5 -4.7 -2.1
08 23.01 СВ 2-3
{6}
н/о н/о -1.8 -3.4 89 -6 -6 1013.9 1012.1
07 23.01 В 3-5
{5}
н/о н/о -1.9 -3.0 92 -7 -7 1013.3 1011.5
09 23.01 С 4-6
{7}
н/о н/о -1.5 -3.7 85 -7 -7 1014.5 1012.7
10 23.01 ЮВ 6-8
{8}
н/о н/о -3.2 -7.2 74 -10 -10 1015.1 1013.3
11 23.01 ЮЗ 2-2
{5}
н/о н/о -2.7 -8.0 67 -6 -6 1015.1 1013.3
12 23.01 В 4-5
{8}
н/о н/о -2.2 -8.8 61 -8 -8 1015.8 1014.0
14 23.01 СВ 2-3
{3}
н/о н/о -2.2 -10.9 51 -5 -5 1016.6 1014.8
13 23.01 В 4-5
{8}
н/о н/о -2.8 -10.4 56 -8 -8 1016.0 1014.2
15 23.01 В 6-9
{9}
н/о н/о -2.3 -12.3 46 -9 -9 1016.9 1015.1
16 23.01 В 2-4
{10}
н/о н/о -2.4 -13.6 42 -6 -6 1017.4 1015.6
17 23.01 СВ 8-10
{12}
н/о н/о -0.9 -14.3 35 -8 -8 1017.5 1015.7
18 23.01 В 8-10
{12}
н/о н/о -0.6 -16.9 28 -7 -7 1018.2 1016.4 -3.5 -0.5
20 23.01 В 7-8
{10}
н/о н/о -1.0 -7 -7 1019.4 1017.6
19 23.01 СВ 8-10
{12}
н/о н/о -0.6 -21.1 19 -7 -7 1018.4 1016.6
21 23.01 В 4-5
{8}
н/о н/о -1.5 -6 -6 1019.8 1018.0
22 23.01 С 2-4
{8}
н/о н/о -1.7 -4 -4 1020.3 1018.5
23 23.01 С 5-11
{11}
н/о н/о -2.0 -7 -7 1020.5 1018.7
00 24.01 ЮВ 3-4
{12}
н/о н/о -3.0 -7 -7 1020.4 1018.6
02 24.01 ЮВ 4-5
{9}
н/о н/о -1.7 -32.2 8 -6 -6 1020.3 1018.5
01 24.01 В 10-12
{12}
н/о н/о -0.9 -31.4 8 -8 -8 1020.3 1018.5
03 24.01 СВ 10-12
{14}
н/о н/о +0.3 -33.8 6 -6 -6 1019.8 1018.0
04 24.01 СВ 9-12
{14}
н/о н/о +0.3 -34.1 5 -6 -6 1019.6 1017.8
05 24.01 СВ 10-15
{15}
н/о н/о -0.3 -31.9 7 -7 -7 1019.6 1017.8
06 24.01 СВ 8-10
{15}
н/о н/о -1.1 -7 -7 1019.9 1018.1 -3.1 +0.4
08 24.01 В 5-8
{9}
н/о н/о -2.1 -7 -7 1020.8 1019.0
07 24.01 СВ 8-10
{10}
н/о н/о -0.4 -6 -6 1019.7 1017.9

 

Местоположение метеостанции Маяк Fruholmen (Норвегия): широта 71.09 долгота 23.98 высота над уровнем моря 13 м.

В архиве по умолчанию представлена погода на Маяке Fruholmen за последнюю неделю. Архивные данные за месяц целиком и за предыдущие месяцы, начиная с января 2011 года, Вы можете получить, выбрав интересующий диапазон дат из раскрывающегося списка и нажав кнопку "Ввод!".


*Определитесь, кто Вы:
робот инопланетянин человек

Внимание! Время в таблицах - всемирное. Для получения местного времени необходимо прибавить поправку, которая равна 1 ч.

Смотрите также архив погоды в соседних городах и на ближайших метеорологических станциях:

Погода в Хаммерфест аэропорту (Норвегия) (51 км)
Погода в Хоннигсвог аэропорту (Норвегия) (73 км)
Погода на Хасвике (Норвегия) (78 км)
Погода в Рогнсундете (Норвегия) (87 км)
Погода в Хасвик аэропорту (Норвегия) (95 км)
Погода в Банаке (Норвегия) (120 км)
Погода в Альта аэропорту (Норвегия) (126 км)
Погода в Мехамн аэропорту (Норвегия) (139 км)
Погода на Маяке Slettnes (Норвегия) (153 км)
Погода в Суоловуопми-Лулит (Норвегия) (169 км)

Пояснения к столбцам:

Ветер - указаны скорость ветра в м/с - средняя за 10 мин, порывы в срок и между сроками (в фигурных скобках) и направление, откуда дует ветер: С - северный, СВ - северо-восточный, В - восточный, ЮВ - юго-восточный, Ю - южный, ЮЗ - юго-западный, З - западный, СЗ - северо-западный.
Видимость - горизонтальная дальность видимости в метрах или километрах. При видимости от 1 до 10 км при отсутствии осадков обычно наблюдается дымка, при ухудшении видимости до 1 км и менее - туман. В сухую погоду видимость может ухудшаться дымом, пылью или мглою.
Явления - указаны атмосферные явления, наблюдавшиеся в срок или в последний час перед сроком; фигурными скобками обозначены явления, наблюдавшиеся между сроками (за 1-3 часа до срока); квадратными скобками обозначены град или гололедные отложения с указанием их диаметра в мм.
Облачность - указаны через наклонную черту общая и нижняя облачность в баллах и высота нижней границы облаков в метрах; квадратными скобками обозначены формы облаков: Ci - перистые, Cs - перисто-слоистые, Cc - перисто-кучевые, Ac - высококучевые, As - высокослоистые, Sc - слоисто-кучевые, Ns - слоисто-дождевые, Cu - кучевые, Cb - кучево-дождевые. Подробнее классификацию облаков см. в Атласе облаков (PDF).
T - Температура воздуха - температура, измеренная на высоте 2 м над землей.
Td - Температура точки росы - температура, при понижении до которой содержащийся в воздухе водяной пар достигнет насыщения.
f - Относительная влажность воздуха - влажноcть воздуха, измеренная на высоте 2 м над землей.
Te - Эффективная температура - температура, которую ощущает одетый по сезону человек в тени. Характеристика душности погоды. При расчете учитывается влияние влажности воздуха и скорости ветра на теплоощущения человека.
Tes - Эффективная температура на солнце - температура, которую ощущает человек, с поправкой на солнечный нагрев. Характеристика знойности погоды. Зависит от высоты солнца над горизонтом, облачности и скорости ветра. Ночью, в пасмурную погоду, а также при ветре 12 м/с и более поправка равна нулю.
P - Атмосферное давление - приведенное к уровню моря атмосферное давление.
Po - Атмосферное давление - измеренное на уровне метеостанции атмосферное давление.
Tmin - Минимальная температура - минимум температуры воздуха на высоте 2 м над землей.
Tmax - Максимальная температура - максимум температуры воздуха на высоте 2 м над землей.
R - Количество осадков - Количество выпавших осадков за период времени, мм. При наведении курсора мыши на число - период времени, за который выпало указанное количество осадков.
R24 - Количество осадков - Количество выпавших осадков за 24 часа, мм.
S - Снежный покров - Высота снежного покрова, см. При наведении курсора мыши на число - состояние снежного покрова и степень покрытия местности в баллах.